sat.trackr.live / text

‹ back to catalog

TIANHUI 4B

NORAD 50573 · 2021-134B

PAYLOAD ACTIVE UNKNOWN

§ Identity

Operator
Country
PRC
Launch date
2021-12-29
Launch site
JSC
Launch vehicle
Mass (kg)
RCS (m²)

External: N2YO · Heavens-Above · Gunter

§ Orbital elements

Epoch: 2026-09-20T23:00:40.944672Z

Period
93.05 min
Inclination
88.9683°
Eccentricity
0.0010299
Mean motion
15.47627596 rev/d
Perigee alt
416.7 km
Apogee alt
430.7 km
Semi-major
6,801.8 km
B*
8.4886e-5
RAAN
309.0589°
Arg perigee
64.6959°
Mean anomaly
295.5367°
Rev number
26,464

§ Raw data

TIANHUI 4B1 50573U 21134B   26263.95880723  .00004419  00000+0  84886-4 0  99972 50573  88.9683 309.0589 0010299  64.6959 295.5367 15.47627596264649

JSON: /api/v1/satellites/50573 · /tle

For live sub-satellite position, see the globe view (requires WebGL).

§ Visibility from observer

Set your observer location to see the next 7 days of passes ≥ 10°. The values pass through the URL so the page stays shareable.

No JS? Fill the form by hand. The geolocation button needs JavaScript.